Regional Weather Roundup
Issued by NWS

Home | Current Version | Previous Version | Text Only | Print | Product List | Glossary On
Versions: 1 2 3 4 5 6 7 8 9 10 11 12 13 14 15 16 17 18 19 20 21 22 23 24 25 26 27 28 29 30 31 32 33 34 35 36 37 38 39 40 41 42 43 44 45 46 47 48 49 50
000
ASUS42 KTBW 292017
RWRFL
FLORIDA REGIONAL WEATHER ROUNDUP
NATIONAL WEATHER SERVICE TAMPA BAY RUSKIN FL
400 PM EDT FRI MAY 29 2015

NOTE: "FAIR" INDICATES FEW OR NO CLOUDS BELOW 12,000 FEET WITH NO
SIGNIFICANT WEATHER AND/OR OBSTRUCTIONS TO VISIBILITY.


FLZ001>010-012>015-112-114-115-292100-
PANHANDLE FLORIDA

CITY           SKY/WX    TMP DP  RH WIND       PRES   REMARKS
PENSACOLA      SUNNY     83  72  69 SE15      30.09F
PENSACOLA NAS  PTSUNNY   85  72  65 SE15      30.08F
MILTON NAS     TSTM      73  69  87 S23       30.12  VSB 1/2
CRESTVIEW      MOSUNNY   81  69  67 SW6       30.10F
DUKE FIELD     TSTM      82  71  68 SE10G17   30.09F
VALPARAISO     MOSUNNY   85  69  60 S13       30.09F
MARY ESTHER    MOSUNNY   85  69  60 SE15      30.08F
TRI COUNTY     FAIR      86  61  42 NE7       30.11F
PANAMA CITY    FAIR      85  65  51 E9G17     30.09F
TYNDALL AFB    SUNNY     84  70  62 S12       30.10F
APALACHICOLA   SUNNY     88  63  43 E13       30.11F

STATION/POSITION SKY/WX   TEMP    WIND        PRES    WAVE   SWELL
                          AIR SEA DIR/SP/G            HT/PER HT/PER
                          (F)     (DEG/KT/KT) (MB)    (FT/S) (FT/S)
30.1N   87.6W              80 80  110/ 12/ 14 1018.2F   3/ 4   2/ 8
29.2N   88.2W              80 82  110/ 12/ 16 1018.9F   3/ 6   2/ 6
28.8N   86.0W              79 81  100/ 12/ 16 1019.3F   3/ 5   2/ 7
PANAMA CITY BEAC           80 82  170/ 10/ 11 1019.5F
CAPE SAN BLAS    NOT AVBL
TOWER C                    77      80/  9/ 10 1019.7F
28.5N   84.5W              79 81   90/ 12/ 16 1019.4F   3/ 6   2/ 6

$$
FLZ011-016>038-118-127-128-134-139-239-292100-
NORTH FLORIDA

CITY           SKY/WX    TMP DP  RH WIND       PRES   REMARKS
MARIANNA       SUNNY     86  62  44 SE6       30.11F
TALLAHASSEE    PTSUNNY   88  59  37 VRB6      30.11F
PERRY          MOSUNNY   87  58  36 E6        30.12F
CROSS CITY       N/A     90  59  35 VRB7      30.09F
LAKE CITY      FAIR      86  61  42 NE5       30.11F
GAINESVILLE    MOSUNNY   86  57  37 E6        30.10F
MAYPORT NAS    PTSUNNY   84  67  56 NE13      30.15F
JACKSONVILLE   MOSUNNY   83  64  52 E13       30.13F
JAX NAS        MOSUNNY   88  62  41 E12       30.14F
JAX CRAIG      MOSUNNY   83  63  50 VRB7G17   30.14F
JAX CECIL      PTSUNNY   84  63  48 E12G17    30.13F
FERNANDINA BEA CLOUDY    86  72  62 E14       30.14F
ST AUGUSTINE   MOSUNNY   81  69  67 NE13      30.15F

STATION/POSITION SKY/WX   TEMP    WIND        PRES    WAVE   SWELL
                          AIR SEA DIR/SP/G            HT/PER HT/PER
                          (F)     (DEG/KT/KT) (MB)    (FT/S) (FT/S)
SHELL POINT                82     180/  6/  9   N/A
KEATON BEACH               80     250/  8/  9 1019.7F
CEDAR KEY                  82     290/  8/  9 1019.4F
FERNANDINA                 81 81   80/  6/ 12 1021.0F
30.7N   81.3W                 80                N/A     4/10   2/11
MAYPORT                    78 82   60/ 12/ 13 1021.7F
31.4N   80.9W              75 78   40/ 16/ 17 1021.6F   4/ 9   3/ 9
ST AUGUSTINE               76 81   40/ 12/ 13 1021.4F

$$
FLZ040-043>046-052-053-057-058-063-144-292100-
INTERIOR CENTRAL FLORIDA

CITY           SKY/WX    TMP DP  RH WIND       PRES   REMARKS
OCALA          MOSUNNY   88  57  35 NE5       30.09F
THE VILLAGES     N/A     86  64  48 VRB5G12   29.98F
LEESBURG       MOSUNNY   90  61  37 E9G18     30.09F
SANFORD        MOSUNNY   88  66  48 E16       30.10F
ORLANDO EXEC   PTSUNNY   86  66  51 E17       30.09F
ORLANDO INTL   MOSUNNY   87  67  51 NE16G24   30.08F
KISSIMMEE      PTSUNNY   88  68  51 E17G23    30.08F
WINTER HAVEN   MOSUNNY   90  67  46 E10       30.08F
LAKELAND       MOSUNNY   86  70  58 SE13G20   30.08F
BARTOW         PTSUNNY   88  66  48 E17G23    30.08F
OKEECHOBEE     CLOUDY    82  68  61 E8        30.07S

$$
FLZ041-047-054-059-064-141-147-292100-
EAST CENTRAL FLORIDA

CITY           SKY/WX    TMP DP  RH WIND       PRES   REMARKS
ORMOND BEACH   PTSUNNY   81  68  65 E12G17    30.13F
DAYTONA BEACH  PTSUNNY   83  69  62 NE16G22   30.13F
DELAND           N/A     84  66  54 E10G17    30.13F
NEW SMYRNA BEA MOSUNNY   84  68  58 NE14G21   30.13F
JFK SPACE CTR  PTSUNNY   82  68  62 E9G20     30.09F
TITUSVILLE     PTSUNNY   84  66  54 E17       30.11F
CAPE CANAVERAL SUNNY     79  73  81 E8        30.09F
PATRICK AFB    SUNNY     85  69  58 E14       30.08F
MELBOURNE      MOSUNNY   83  68  60 E14       30.09F
VERO BEACH     MOSUNNY   86  67  52 E14G22    30.08F
FT PIERCE      MOSUNNY   84  70  62 E14G21    30.07F
STUART         PTSUNNY   84  68  58 E14       30.08

STATION/POSITION SKY/WX   TEMP    WIND        PRES    WAVE   SWELL
                          AIR SEA DIR/SP/G            HT/PER HT/PER
                          (F)     (DEG/KT/KT) (MB)    (FT/S) (FT/S)
28.5N   80.2W              79 81   70/ 12/ 14 1019.8F
28.9N   78.5W              78 81   40/ 14/ 16 1019.6F
TRIDENT PIER               83 82   70/ 12/ 15 1020.4F
28.4N   80.5W                 82                N/A     3/ 9
27.5N   80.2W                 81                N/A     5/ 9   2/11

$$
FLZ050-056-061-142-242-148-248-149-249-151-251-155-255-
160-260-292100-
WEST CENTRAL FLORIDA

CITY           SKY/WX    TMP DP  RH WIND       PRES   REMARKS
CRYSTAL RIVER  FAIR      90  59  35 E5        30.07F
INVERNESS      FAIR      90  63  40 E5        30.08F
BROOKSVILLE    MOSUNNY   90  64  42 MISG      30.08F
CLEARWATER     MOSUNNY   86  67  52 NW10      30.06F
TAMPA INTL     PTSUNNY   85  65  51 W10       30.06F
TAMPA EXEC     MOSUNNY   90  66  45 NE5       30.07F
PLANT CITY     PTSUNNY   90  68  48 NE8       30.08F
MACDILL AFB    MOSUNNY   88  67  49 N8        30.06F
PETER O KNIGHT MOSUNNY   90  68  48 NE6       30.06F
ST PETERSBURG  PTSUNNY   85  65  51 VRB7      30.04F
SARASOTA       MOSUNNY   89  66  46 VRB3      30.03F
VENICE         FAIR      82  68  61 NW15      30.05F

STATION/POSITION SKY/WX   TEMP    WIND        PRES    WAVE   SWELL
                          AIR SEA DIR/SP/G            HT/PER HT/PER
                          (F)     (DEG/KT/KT) (MB)    (FT/S) (FT/S)
CEDAR KEY                  82     290/  8/  9 1019.4F
28.5N   84.5W              79 81   90/ 12/ 16 1019.4F   3/ 6   2/ 6
27.3N   84.2W                 81                N/A     3/ 5
CLEARWATER BEACH           80 83  330/ 10/ 12 1019.3F
MIDDLE TAMPA BAY           83     350/  6/  8 1019.2F
VENICE                     80 84  310/ 13/ 15 1017.1F

$$
FLZ066-069-070-075>078-162-262-165-265-292100-
SOUTHWEST FLORIDA AND KEYS

CITY           SKY/WX    TMP DP  RH WIND       PRES   REMARKS
PUNTA GORDA    LGT RAIN  85  69  58 E13G20    30.05F
FT MYERS       CLOUDY    89  66  46 NE8       30.02F
SOUTHWEST INTL PTSUNNY   88  66  48 NE13      30.02F
NAPLES         MOSUNNY   84  66  54 W15       30.01F
MARCO ISLAND     N/A     88  64  45 W9        30.02F
IMMOKALEE      PTCLDY   N/A N/A N/A E15       30.03F
MARATHON       MOSUNNY   86  69  56 E9        30.02F
KEY WEST NAS   MOSUNNY   85  66  53 SE14      30.02F
KEY WEST INTL  SUNNY     85  67  54 E12       30.02F

STATION/POSITION SKY/WX   TEMP    WIND        PRES    WAVE   SWELL
                          AIR SEA DIR/SP/G            HT/PER HT/PER
                          (F)     (DEG/KT/KT) (MB)    (FT/S) (FT/S)
VENICE                     80 84  310/ 13/ 15 1017.1F
NAPLES                     81 84  280/  8/ 10 1017.3F
26.0N   85.6W              78 81  180/  4/  6 1017.8F   3/ 7   3/ 7
DRY TORTUGAS               80      90/  9/ 11 1017.0F
NW FL BAY                  81     120/  9/ 11 1017.3
SAND KEY                   80      90/ 11/ 13 1016.7F
SOMBRERO KEY               81      90/ 12/ 13 1017.2F
LONG KEY                   80 82   80/  9/ 11 1017.4F
MOLASSES REEF              79 82   60/ 11/ 12 1016.6F

$$
FLZ067-068-071>074-168-172>174-292100-
SOUTHEAST FLORIDA

CITY           SKY/WX    TMP DP  RH WIND       PRES   REMARKS
W PALM BEACH   PTSUNNY   85  70  60 E15       30.07F
FT LAUDER-EXEC MOSUNNY   83  69  62 E13       30.04F
FT LAUDERDALE  PTSUNNY   82  70  66 E10       30.04F
POMPANO BEACH  MOSUNNY   84  69  60 E15       30.05F
PEMBROKE PINES PTSUNNY   85  67  54 NE10      30.05F
OPA LOCKA      MOSUNNY   86  66  51 E13       30.04F
MIAMI          MOSUNNY   87  63  44 E13       30.03F
WEST KENDALL   SUNNY     88  64  44 E10G18    30.03F
HOMESTEAD      SUNNY     84  68  58 E9        30.03F

STATION/POSITION SKY/WX   TEMP    WIND        PRES    WAVE   SWELL
                          AIR SEA DIR/SP/G            HT/PER HT/PER
                          (F)     (DEG/KT/KT) (MB)    (FT/S) (FT/S)
PORT EVERGLADES            80      70/  9/ 12 1017.5F
VIRGINIA KEY               80 83   80/  6/  8 1017.2F


USA.gov is the U.S. government's official web portal to all federal, state and local government web resources and services.